Flag for Canada Weather past 2 weeks in Mount Pearl, Newfoundland and Labrador, Canada

Now
50 °F

Light rain. Fog.


Feels Like: 48 °F
Forecast: 51 / 57 °F
Wind: 5 mph from East

Location: St. John's

Current Time: Oct 24, 2014 at 9:45:15 PM

Latest Report: Oct 24, 2014 at 8:30 PM


Visibility: 0 mi

Pressure: 29.64 "Hg

Humidity: 100%

Dew point: 50 °F

Location of Mount PearlLocation

Historic Weather in Mount Pearl — Graph

°F

Mount Pearl temperature yesterday

Maximum temperature yesterday: 48 °F (at 3:30 PM)
Minimum temperature yesterday: 36 °F (at 12:30 AM)
Average temperature yesterday: 43 °F

Past Weeks' High & Low Weather Summary

 TemperatureHumidityPressure
High68 °F (Oct 19, 1:30 PM)100% (Oct 9, 8:30 PM)30.48 "Hg (Oct 9, 8:30 PM)
Low36 °F (Oct 17, 4:30 AM)55% (Oct 10, 1:30 PM)29.11 "Hg (Oct 19, 7:30 AM)
Average50 °F87%29.99 "Hg
* Reported Oct 9 8:30 PM — Oct 24 8:30 PM, Mount Pearl, Weather by CustomWeather, © 2014

Note: Actual official high and low records may vary slightly from our data, if they occured in-between our weather recording intervals... More about our weather records

Advertising

Mount Pearl weather history for previous 24 hours

 ConditionsComfort  
Time TempWeatherWind HumidityBarometerVisibility
8:30 PM
Oct 24
50 °FLight rain. Fog.5 mph100%29.64 "Hg1 mi
7:30 PM48 °FRain. Fog.8 mph100%29.67 "Hg1 mi
6:30 PM48 °FLight rain. Fog.9 mph100%29.70 "Hg1 mi
5:30 PM48 °FLight rain. Fog.9 mph100%29.73 "Hg0 mi
4:30 PM50 °FLight rain. Fog.9 mph100%29.76 "Hg0 mi
3:30 PM50 °FLight rain. Fog.14 mph100%29.80 "Hg0 mi
2:30 PM50 °FLight rain. Fog.13 mph100%29.83 "Hg0 mi
1:30 PM50 °FDrizzle. Fog.16 mph100%29.86 "Hg0 mi
12:30 PM50 °FDrizzle. Fog.14 mph100%29.90 "Hg0 mi
11:30 AM50 °FLight rain. Fog.14 mph100%29.94 "Hg0 mi
10:30 AM50 °FLight rain. Fog.15 mph100%29.98 "Hg1 mi
9:30 AM50 °FLight rain. Fog.14 mph100%29.99 "Hg3 mi
8:30 AM50 °FLight rain. Fog.14 mph100%30.02 "Hg1 mi
7:30 AM48 °FLight rain. Fog.13 mph100%30.02 "Hg0 mi
6:30 AM48 °FSprinkles. Fog.13 mph100%30.04 "Hg1 mi
5:30 AM48 °FSprinkles. Fog.14 mph100%30.06 "Hg1 mi
4:30 AM48 °FSprinkles. Fog.12 mph100%30.08 "Hg1 mi
3:30 AM48 °FSprinkles. Fog.12 mph100%30.09 "Hg1 mi
2:30 AM48 °FSprinkles. Fog.9 mph94%30.13 "Hg1 mi
1:30 AM46 °FSprinkles. Fog.9 mph100%30.16 "Hg1 mi
12:30 AM46 °FSprinkles. Low clouds.13 mph100%30.18 "Hg10 mi
11:30 PM
Oct 23
46 °FLow clouds.10 mph93%30.20 "Hg15 mi
10:30 PM46 °FLow clouds.8 mph93%30.22 "Hg15 mi
9:30 PM46 °FMostly cloudy.7 mph93%30.23 "Hg15 mi
Weather by CustomWeather, © 2014

See weather overviewHow to use our weather pages